Weather History for Little Falls, MN

Change the Weather History Date:

Tuesday, January 29, 2013

  Actual Average Record
Temperature  
Mean Temperature 28 °F -  
Max Temperature 32 °F 22 °F 40 °F (1974)
Min Temperature 23 °F 0 °F -35 °F (1951)
Degree Days  
Heating Degree Days 37    
Moisture  
Dew Point 26 °F    
Average Humidity 84    
Maximum Humidity 93    
Minimum Humidity 69    
Precipitation  
Precipitation 0.02 in - - ()
Sea Level Pressure  
Sea Level Pressure 29.66 in    
Wind  
Wind Speed 4 mph (NNW)    
Max Wind Speed 12 mph    
Max Gust Speed 18 mph    
Visibility 8 miles    
Events Snow    
Averages and records for this station are not official NWS values.
T = Trace of Precipitation, MM = Missing Value Source: NWS Daily Summary

Daily Weather History Graph

Daily Weather History Graph

Search for Another Location

Airport:

Trip Planner

Search our weather history database for the weather conditions in past years. The results will help you decide how hot, cold, wet, or windy it might be!

Date:

Astronomy

Jan. 29, 2013 Rise Set
Actual Time 7:42 AM CST 5:18 PM CST
Civil Twilight 7:10 AM CST 5:51 PM CST
Nautical Twilight 6:34 AM CST 6:27 PM CST
Astronomical Twilight 5:59 AM CST 7:02 PM CST
Moon 8:28 PM CST (1/29) 8:28 AM CST (1/29)
Length of Visible Light 10h 40m
Length of Day
9h 36m
Waning Gibbous, 93% of the Moon is Illuminated
Jan 29
Waning Gibbous
Feb 3
Last Quarter
Feb 10
New
Feb 17
First Quarter
Feb 25
Full

Hourly Weather History & Observations

Time (CST) Temp. Windchill Dew Point Humidity Pressure Visibility Wind Dir Wind Speed Gust Speed Precip Events Conditions
12:14 AM 32.0 °F - 30.2 °F 93% 29.62 in 3.0 mi Calm Calm - N/A   Overcast
12:34 AM 32.0 °F - 30.2 °F 93% 29.62 in 4.0 mi Calm Calm - N/A   Overcast
12:54 AM 32.0 °F - 30.2 °F 93% 29.61 in 4.0 mi Calm Calm - N/A   Overcast
1:14 AM 32.0 °F - 30.2 °F 93% 29.61 in 4.0 mi Calm Calm - N/A   Overcast
1:34 AM 32.0 °F - 30.2 °F 93% 29.59 in 2.5 mi Calm Calm - N/A   Overcast
1:54 AM 32.0 °F 28.7 °F 30.2 °F 93% 29.56 in 2.5 mi ENE 3.5 mph - N/A   Overcast
2:14 AM 32.0 °F - 30.2 °F 93% 29.59 in 3.0 mi Calm Calm - N/A   Overcast
2:34 AM 32.0 °F - 30.2 °F 93% 29.58 in 2.5 mi Calm Calm - N/A   Overcast
2:54 AM 32.0 °F - 30.2 °F 93% 29.60 in 2.5 mi Calm Calm - N/A   Overcast
3:14 AM 32.0 °F - 30.2 °F 93% 29.58 in 2.5 mi Calm Calm - N/A Snow Light Snow
3:34 AM 32.0 °F - 30.2 °F 93% 29.57 in 1.5 mi Calm Calm - 0.01 in Snow Light Snow
3:54 AM 32.0 °F - 30.2 °F 93% 29.57 in 1.8 mi Calm Calm - 0.02 in Snow Light Snow
4:13 AM 32.0 °F - 30.2 °F 93% 29.57 in 2.0 mi Calm Calm - N/A Snow Light Snow
4:34 AM 32.0 °F - 30.2 °F 93% 29.57 in 2.0 mi Calm Calm - N/A Snow Light Snow
4:54 AM 32.0 °F - 30.2 °F 93% 29.57 in 4.0 mi Calm Calm - N/A   Overcast
5:14 AM 32.0 °F - 30.2 °F 93% 29.57 in 4.0 mi Calm Calm - N/A   Overcast
5:34 AM 32.0 °F - 30.2 °F 93% 29.57 in 3.0 mi Calm Calm - N/A Snow Light Snow
5:54 AM 32.0 °F - 30.2 °F 93% 29.54 in 3.0 mi Calm Calm - N/A Snow Light Snow
6:14 AM 32.0 °F 28.7 °F 30.2 °F 93% 29.54 in 5.0 mi NNW 3.5 mph - N/A   Overcast
6:34 AM 32.0 °F - 30.2 °F 93% 29.54 in 7.0 mi Calm Calm - N/A   Overcast
6:54 AM 32.0 °F 26.4 °F 30.2 °F 93% 29.54 in 10.0 mi NNW 5.8 mph - N/A   Overcast
7:14 AM 32.0 °F 24.8 °F 30.2 °F 93% 29.55 in 10.0 mi NNW 8.1 mph - N/A   Overcast
7:34 AM 32.0 °F 26.4 °F 30.2 °F 93% 29.58 in 10.0 mi NW 5.8 mph - N/A   Overcast
7:54 AM 32.0 °F 27.5 °F 30.2 °F 93% 29.60 in 10.0 mi WNW 4.6 mph - N/A   Overcast
8:14 AM 32.0 °F 25.6 °F 30.2 °F 93% 29.61 in 10.0 mi WNW 6.9 mph - N/A   Overcast
8:34 AM 32.0 °F 25.6 °F 30.2 °F 93% 29.62 in 10.0 mi NW 6.9 mph - N/A   Overcast
8:54 AM 32.0 °F 28.7 °F 30.2 °F 93% 29.61 in 10.0 mi NW 3.5 mph - N/A   Overcast
9:14 AM 32.0 °F 27.5 °F 30.2 °F 93% 29.62 in 10.0 mi NW 4.6 mph - N/A   Overcast
9:34 AM 32.0 °F 27.5 °F 28.4 °F 87% 29.62 in 10.0 mi NW 4.6 mph - N/A   Overcast
9:54 AM 32.0 °F 25.6 °F 28.4 °F 87% 29.60 in 7.0 mi NW 6.9 mph - N/A   Overcast
10:13 AM 30.2 °F 24.3 °F 28.4 °F 93% 29.62 in 7.0 mi NW 5.8 mph - N/A   Overcast
10:34 AM 30.2 °F 24.3 °F 28.4 °F 93% 29.64 in 7.0 mi NW 5.8 mph - N/A   Overcast
10:54 AM 32.0 °F 24.8 °F 28.4 °F 87% 29.64 in 7.0 mi NW 8.1 mph - N/A   Mostly Cloudy
11:14 AM 32.0 °F 24.2 °F 28.4 °F 87% 29.65 in 7.0 mi WNW 9.2 mph - N/A   Overcast
11:34 AM 32.0 °F 24.2 °F 28.4 °F 87% 29.65 in 7.0 mi NW 9.2 mph - N/A   Overcast
11:54 AM 32.0 °F 26.4 °F 28.4 °F 87% 29.66 in 7.0 mi NW 5.8 mph - N/A   Overcast
12:14 PM 32.0 °F 27.5 °F 28.4 °F 87% 29.67 in 7.0 mi NW 4.6 mph - N/A   Overcast
12:34 PM 32.0 °F 24.8 °F 26.6 °F 80% 29.67 in 7.0 mi WNW 8.1 mph - N/A   Mostly Cloudy
12:54 PM 32.0 °F 26.4 °F 26.6 °F 80% 29.65 in 10.0 mi NW 5.8 mph - N/A   Mostly Cloudy
1:14 PM 32.0 °F 24.2 °F 26.6 °F 80% 29.65 in 10.0 mi NW 9.2 mph - N/A   Mostly Cloudy
1:34 PM 32.0 °F 24.8 °F 26.6 °F 80% 29.65 in 10.0 mi NW 8.1 mph - N/A   Mostly Cloudy
1:54 PM 30.2 °F 21.9 °F 24.8 °F 80% 29.66 in 10.0 mi NNW 9.2 mph - N/A   Mostly Cloudy
2:14 PM 30.2 °F 22.6 °F 23.0 °F 75% 29.66 in 10.0 mi NNW 8.1 mph - N/A   Overcast
2:34 PM 30.2 °F 23.4 °F 23.0 °F 75% 29.66 in 10.0 mi NW 6.9 mph 18.4 mph N/A   Overcast
2:54 PM 30.2 °F 21.9 °F 23.0 °F 75% 29.67 in 10.0 mi NNW 9.2 mph - N/A   Overcast
3:14 PM 30.2 °F 24.3 °F 24.8 °F 80% 29.67 in 10.0 mi NW 5.8 mph - N/A   Overcast
3:54 PM 30.2 °F 22.6 °F 23.0 °F 75% 29.70 in 10.0 mi NNW 8.1 mph - N/A   Overcast
4:14 PM 30.2 °F 21.3 °F 23.0 °F 75% 29.71 in 10.0 mi NNW 10.4 mph 17.3 mph N/A   Overcast
4:34 PM 30.2 °F 25.4 °F 23.0 °F 75% 29.71 in 10.0 mi North 4.6 mph - N/A   Overcast
4:54 PM 30.2 °F 21.9 °F 23.0 °F 75% 29.71 in 10.0 mi NNW 9.2 mph - N/A   Overcast
5:14 PM 30.2 °F 22.6 °F 23.0 °F 75% 29.71 in 10.0 mi NNW 8.1 mph - N/A   Overcast
5:34 PM 30.2 °F 22.6 °F 23.0 °F 75% 29.69 in 10.0 mi NNW 8.1 mph - N/A   Overcast
5:54 PM 30.2 °F 22.6 °F 23.0 °F 75% 29.72 in 10.0 mi NNW 8.1 mph - N/A   Overcast
6:14 PM 28.4 °F 23.3 °F 23.0 °F 80% 29.72 in 10.0 mi NNW 4.6 mph - N/A   Overcast
6:34 PM 28.4 °F 19.7 °F 23.0 °F 80% 29.73 in 10.0 mi NNW 9.2 mph 16.1 mph N/A   Overcast
6:54 PM 28.4 °F 21.2 °F 21.2 °F 74% 29.74 in 10.0 mi NNW 6.9 mph - N/A   Overcast
7:14 PM 28.4 °F 20.4 °F 21.2 °F 74% 29.75 in 10.0 mi North 8.1 mph - N/A   Overcast
7:34 PM 28.4 °F 22.2 °F 21.2 °F 74% 29.74 in 10.0 mi NNW 5.8 mph - N/A   Overcast
7:54 PM 28.4 °F 18.5 °F 21.2 °F 74% 29.75 in 10.0 mi NNW 11.5 mph 18.4 mph N/A   Overcast
8:14 PM 26.6 °F 18.2 °F 21.2 °F 80% 29.75 in 10.0 mi NNW 8.1 mph - N/A   Overcast
8:34 PM 26.6 °F 18.2 °F 21.2 °F 80% 29.76 in 10.0 mi NNW 8.1 mph - N/A   Overcast
8:54 PM 26.6 °F 17.5 °F 21.2 °F 80% 29.77 in 10.0 mi NNW 9.2 mph - N/A   Overcast
9:14 PM 26.6 °F 19.1 °F 21.2 °F 80% 29.77 in 10.0 mi North 6.9 mph - N/A   Overcast
9:34 PM 26.6 °F 18.2 °F 19.4 °F 74% 29.75 in 10.0 mi NW 8.1 mph 18.4 mph N/A   Overcast
9:54 PM 26.6 °F 16.8 °F 19.4 °F 74% 29.76 in 10.0 mi NNW 10.4 mph 16.1 mph N/A   Overcast
10:14 PM 26.6 °F 21.2 °F 19.4 °F 74% 29.77 in 10.0 mi North 4.6 mph - N/A   Overcast
10:34 PM 26.6 °F 19.1 °F 17.6 °F 69% 29.78 in 10.0 mi NNW 6.9 mph - N/A   Overcast
10:54 PM 26.6 °F 21.2 °F 17.6 °F 69% 29.79 in 10.0 mi NNW 4.6 mph - N/A   Overcast
11:14 PM 24.8 °F 17.9 °F 19.4 °F 80% 29.79 in 10.0 mi NW 5.8 mph - N/A   Overcast
11:34 PM 24.8 °F 15.3 °F 17.6 °F 74% 29.78 in 10.0 mi NNW 9.2 mph - N/A   Overcast
11:54 PM 23.0 °F 13.1 °F 17.6 °F 80% 29.77 in 10.0 mi NNW 9.2 mph - N/A   Overcast